Tracking 30743 objects as of 21-Jun-2025
HD Live streaming from Space Station
objects crossing your sky now

COSMOS 1275 DEB

Track COSMOS 1275 DEB now!
10-day predictions


NORAD ID: 17626
Int'l Code: 1981-053KY
Perigee: 924.2 km
Apogee: 1,132.9 km
Inclination: 82.9 °
Period: 105.6 minutes
Semi major axis: 7399 km
RCS: 0.0074 m2 (small)
Launch date: June 4, 1981
Source: Commonwealth of Independent States (former USSR) (CIS)
Launch site: PLESETSK MISSILE AND SPACE COMPLEX (PKMTR)

Note: This is SATELLITE DEBRIS
Your satellite tracking list
Your tracking list is empty




NASA's NSSDC Master Catalog

Two Line Element Set (TLE):
1 17626U 81053KV  25171.13436940  .00001101  00000-0  12772-2 0  9999
2 17626  82.8676  59.9268 0141008 169.4065 343.7040 13.63932570990294
Source of the keplerian elements: AFSPC